Location: Pedholt
(56.0260°N, 10.2097°E)
Time: 19:48:53
(UTC+00:00)

Tiros 1 - Pass Details

Date: 06 August 2021
Orbit: 630 x 663 km, 48.4° (Epoch: 19 September)

Event Time Altitude Azimuth Distance (km) Brightness Sun altitude
Rises 18:31:14 0° 257° (WSW) 2,987 11.6 4.7°
Reaches altitude 10° 18:33:46 10° 248° (WSW) 2,070 10.5 4.4°
Maximum altitude 18:38:01 32° 185° (S) 1,111 8.3 3.9°
Drops below altitude 10° 18:42:13 10° 123° (ESE) 2,051 9.1 3.3°
Sets 18:44:43 0° 113° (ESE) 2,954 9.8 3.0°
